Location: Florence
(33.9745°N, 118.2481°W)
Time: 20:09:48
(UTC+00:00)

Cosmos 972 Rocket - Pass Details

Date: 23 March 2023
Orbit: 713 x 1151 km, 75.8° (Epoch: 05 June)

Event Time Altitude Azimuth Distance (km) Brightness Sun altitude
Rises 12:54:20 0° 343° (NNW) 3,747 7.5 -12.9°
Reaches altitude 10° 12:57:02 10° 343° (NNW) 2,728 6.8 -12.3°
Maximum altitude 13:03:17 79° 258° (WSW) 912 4.3 -11.0°
Drops below altitude 10° 13:08:48 10° 172° (S) 2,414 6.6 -9.9°
Sets 13:11:04 0° 171° (S) 3,288 7.3 -9.4°
